RH
39 35 32 30 28 27 27 28 29 30 30 31 31 31 31 28 28 26 26 26 26 26 26 27 28 34 40 43 48 55 64 75 83 86 85 82 79 78 78 77 75 72
36 32 29 28 27 26 28 29 30 30 31 32 32 33 31 29 28 27 27 27 26 26 26 27 28 33 40 44 47 54 63 72 80 87 88 86 84 81 78 77 76 75
32 30 28 27 27 28 30 33 32 30 31 33 33 33 31 29 28 29 28 27 27 27 26 27 29 34 41 45 46 51 59 66 74 84 89 87 85 85 80 77 76 76
31 30 30 30 31 32 33 33 31 29 32 34 33 32 31 29 30 30 28 28 28 28 28 28 31 35 42 45 47 49 56 63 71 81 89 89 87 85 83 80 78 79
33 33 33 35 36 36 35 33 30 30 33 34 33 32 31 30 31 31 29 29 29 30 30 29 31 36 42 46 47 48 53 60 67 76 86 90 89 87 86 82 80 81
37 37 37 38 38 39 37 33 30 31 33 35 34 33 31 31 32 31 30 30 30 31 31 30 31 36 41 45 46 48 50 55 62 69 79 86 88 88 88 86 83 83
40 40 40 40 40 40 38 35 34 33 35 36 35 33 31 31 32 32 31 32 31 32 32 31 32 35 39 43 46 48 49 52 56 62 70 79 84 87 89 90 89 87
42 41 41 41 41 41 41 39 37 37 38 39 36 33 32 33 33 33 33 34 34 33 33 32 32 34 38 42 45 47 48 49 53 58 63 70 78 83 87 89 91 90
43 42 41 42 43 43 42 41 39 39 40 39 36 35 35 35 35 35 35 35 35 34 34 33 32 33 36 39 41 44 47 50 52 54 57 62 69 77 83 87 88 90
45 44 44 44 44 43 43 42 40 39 39 40 39 39 38 37 37 37 36 35 35 35 34 33 32 33 34 36 38 41 46 49 51 52 53 56 62 70 77 82 85 88
48 46 45 44 43 43 43 43 41 41 42 42 41 40 40 38 37 36 35 34 34 34 33 32 31 32 32 33 36 40 44 47 50 52 53 54 56 60 66 73 79 84
48 46 45 45 44 45 45 44 43 44 44 42 41 40 39 38 38 36 35 34 33 33 32 31 30 29 30 31 33 38 41 43 45 49 51 51 51 52 55 61 69 77
47 46 45 45 45 45 45 46 45 44 42 41 41 40 40 40 39 37 35 34 33 33 32 31 31 30 31 32 34 36 37 38 40 43 46 47 48 50 52 53 58 66
47 46 46 46 45 45 46 46 44 42 41 41 41 40 41 41 40 38 37 36 35 35 34 34 34 33 34 36 37 38 38 38 40 41 44 46 48 51 53 53 55 58
48 47 46 45 45 46 47 45 43 42 41 41 41 41 42 42 40 39 39 38 38 38 38 38 37 37 38 40 40 40 42 44 45 45 47 48 50 52 54 55 55 56
49 48 47 48 48 47 46 45 44 43 42 42 42 42 42 42 41 41 40 40 41 41 41 41 41 41 43 43 43 46 49 50 50 50 50 50 51 53 55 56 57 56
50 50 50 50 49 47 46 46 45 44 43 43 43 42 42 42 42 41 41 41 42 43 44 44 45 45 46 46 46 49 51 51 51 52 51 52 52 53 55 57 58 57
52 52 53 52 50 47 46 46 46 45 44 44 43 42 42 42 42 42 42 43 44 44 45 46 47 48 49 48 48 49 49 50 51 51 51 51 53 54 56 56 56 57
55 55 55 53 50 47 47 47 46 46 46 45 44 44 43 43 44 44 44 45 46 46 47 48 49 50 51 50 49 49 49 49 49 49 50 52 54 56 56 55 55 54
58 57 56 53 49 47 47 48 46 46 46 46 46 45 45 45 45 46 46 47 47 48 48 48 49 51 51 50 49 49 49 49 48 48 49 51 53 55 55 54 53 53
59 58 56 52 50 49 49 48 47 46 47 47 46 46 46 46 47 47 47 48 47 47 47 47 49 50 49 49 48 49 48 48 48 48 48 49 51 52 53 54 54 53
61 59 55 52 51 51 50 48 48 48 47 47 47 46 46 46 46 46 46 45 45 45 44 45 44 44 45 44 45 45 45 45 45 46 47 48 49 49 50 50 51 51
61 58 54 53 52 51 49 49 49 49 49 49 48 46 45 44 43 43 41 40 39 38 37 35 33 33 34 34 35 35 35 36 38 39 39 41 41 42 43 43 44 44
60 56 54 53 51 50 49 50 52 52 51 49 47 44 43 41 39 36 33 31 28 26 24 22 21 21 21 20 20 20 20 21 23 23 24 26 27 28 29 30 30 32
57 55 53 51 49 49 50 51 52 50 48 45 42 40 37 34 30 26 23 21 19 17 15 14 13 13 13 13 12 12 12 12 12 12 13 14 16 17 18 19 20 21
55 53 51 48 47 48 50 50 48 45 42 39 36 33 29 24 20 17 15 13 13 12 11 11 11 11 10 10 10 9 9 8 8 9 10 11 11 12 13 14 16 17